This is the latest recevied weather packets stored in our database for station/object KD8OUK. If no packets are shown the sender has not sent any weather packets the latest 10 day(s).
| Time | Temp. | Humidity | Pressure | Rain* | Wind** | Luminosity | Snow |
|---|---|---|---|---|---|---|---|
| 1778087431 | 15° C | 57% | 1013.7 hPa | 0 mm | - | - | - |
| 1778087123 | 15° C | 56% | 1013.7 hPa | 0 mm | - | - | - |
| 1778086815 | 15.56° C | 57% | 1013.5 hPa | 0 mm | - | - | - |
| 1778086525 | 15° C | 57% | 1013.5 hPa | 0 mm | - | - | - |
| 1778086217 | 13.89° C | 60% | 1013.4 hPa | 0 mm | - | - | - |
| 1778085928 | 13.89° C | 58% | 1013.4 hPa | 0 mm | - | - | - |
| 1778085620 | 14.44° C | 59% | 1013.4 hPa | 0 mm | - | - | - |
| 1778085330 | 13.89° C | 60% | 1013.5 hPa | 0 mm | - | - | - |
| 1778085022 | 13.33° C | 63% | 1013.5 hPa | 0 mm | - | - | - |
| 1778084732 | 12.78° C | 61% | 1013.4 hPa | 0 mm | - | - | - |
| 1778084424 | 12.78° C | 61% | 1013.3 hPa | 0 mm | - | - | - |
| 1778084117 | 12.78° C | 63% | 1013.3 hPa | 0 mm | - | - | - |
| 1778083827 | 12.78° C | 65% | 1013.5 hPa | 0 mm | - | - | - |
| 1778083520 | 12.78° C | 68% | 1013.5 hPa | 0 mm | - | - | - |
| 1778083230 | 12.78° C | 68% | 1013.5 hPa | 0 mm | - | - | - |
| 1778082923 | 12.78° C | 67% | 1013.5 hPa | 0 mm | - | - | - |
| 1778082632 | 13.33° C | 66% | 1013.5 hPa | 0 mm | - | - | - |
| 1778082324 | 13.33° C | 70% | 1013.4 hPa | 0 mm | - | - | - |
| 1778082016 | 12.78° C | 69% | 1013.4 hPa | 0 mm | - | - | - |
| 1778081726 | 12.22° C | 70% | 1013.1 hPa | 0 mm | - | - | - |
| 1778081418 | 12.78° C | 72% | 1013.1 hPa | 0 mm | - | - | - |
| 1778081128 | 11.67° C | 75% | 1012.9 hPa | 0 mm | - | - | - |
| 1778080820 | 11.67° C | 76% | 1012.8 hPa | 0 mm | - | - | - |
| 1778080531 | 11.11° C | 76% | 1012.7 hPa | 0 mm | - | - | - |
| 1778080223 | 11.11° C | 80% | 1012.6 hPa | 0 mm | - | - | - |
* Rain latest hour (hover to see other rain measurements)
** Current wind speed in m/s (hover to see current wind gust speed)